Вернуться в каталог

AVION-KALUGA 650

АктивенНаукаSSO
NORAD 57195·PAYLOAD·🇷🇺 Russia
Это название спутника еще не подтверждено официальными источниками.

Запущен Jun 27, 2023 с Vostochny Cosmodrome

Loading…

Ближайшие Пролёты (ближайшие 24 часа)

TLE

СвежийSource: Space-Track

Эпоха: Sep 14, 2026, 21:51 UTC

1 57195U 23091AF  26257.91085792  .00005112  00000-0  23236-3 0  9993
2 57195  97.4992 317.1297 0010949 149.9070 210.2797 15.21147310177662

Отслеживайте AVION-KALUGA 650 в реальном времени с AllMySat

Download on the App Store